Regional Weather Roundup
Issued by NWS Goodland, KS

Home | Current Version | Previous Version | Graphics & Text | Print | Product List | Glossary On
Versions: 1 2 3 4 5 6 7 8 9 10 11 12 13 14 15 16 17 18 19 20 21 22 23 24 25 26 27 28 29 30 31 32 33 34 35 36 37 38 39 40 41 42 43 44 45 46 47 48 49 50
000
ASUS43 KGLD 010959
RWRGLD

GOODLAND FORECAST AREA HOURLY WEATHER ROUNDUP
NATIONAL WEATHER SERVICE GOODLAND KS
400 AM MDT FRI AUG 01 2014

...OFFICIAL OBSERVATIONS...

CITY           SKY/WX    TMP DP  RH WIND       PRES   REMARKS
GOODLAND KS    NOT AVBL
HILL CITY KS   NOT AVBL
IMPERIAL NEB   NOT AVBL
MCCOOK NEB     NOT AVBL
AKRON CO       NOT AVBL
BURLINGTON CO  NOT AVBL
LIMON CO       NOT AVBL
$$

...UNOFFICIAL OBSERVATIONS...

CITY           SKY/WX    TMP DP  RH WIND       PRES   REMARKS
COLBY KS       CLEAR     61  55  82 W8        30.16S
GOVE KS          N/A     61  32  33 MISG        N/A
LENORA KS        N/A     64  32  30 MISG        N/A
NORTON KS      CLEAR     59  54  82 NW7       30.07S
WAKEENEY KS      N/A     64  51  63 MISG        N/A
TRENTON NEB      N/A     64  32  30 CALM        N/A
KIT CARSON CO    N/A     58  52  81 CALM        N/A
YUMA CO          N/A     58  54  88 NW5         N/A
$$


USA.gov is the U.S. government's official web portal to all federal, state and local government web resources and services.